Regional Weather Roundup
Issued by NWS

Home | Current Version | Previous Version | Graphics & Text | Print | Product List | Glossary On
Versions: 1 2 3 4 5 6 7 8 9 10 11 12 13 14 15 16 17 18 19 20 21 22 23 24 25 26 27 28 29 30 31 32 33 34 35 36 37 38 39 40 41 42 43 44 45 46 47 48 49 50
231
ASUS43 KTOP 161659
RWRKS

WEATHER ROUNDUP FOR KANSAS
NATIONAL WEATHER SERVICE GOODLAND KS
1100 AM CST MON JAN 16 2017

NOTE:  "FAIR" INDICATES FEW OR NO CLOUDS BELOW 12,000 FEET WITH NO
SIGNIFICANT WEATHER AND/OR OBSTRUCTIONS TO VISIBILITY.

KSZ001>006-013>018-027>032-041>047-161800-
NORTHWEST KANSAS

CITY           SKY/WX    TMP DP  RH WIND       PRES   REMARKS
GOODLAND       LGT SNOW  32  31  96 N16G24    29.93R FOG     WCI  21
HAYS           CLOUDY   N/A N/A N/A N10       29.90R HAZE
HILL CITY      LGT RAIN  33  32  96 N14       29.92R WCI  23
RUSSELL        CLOUDY    32  31  96 N13       29.87R WCI  22
$$

KSZ061>065-074>080-084>089-161800-
SOUTHWEST KANSAS

CITY           SKY/WX    TMP DP  RH WIND       PRES   REMARKS
DODGE CITY     CLOUDY    32  31  96 N10       29.88R FOG     WCI  24
ELKHART          N/A    N/A N/A N/A MISG        N/A
GARDEN CITY      N/A     32  31  96 N13       29.90  WCI  22
GREAT BEND     MIX PCPN  32  31  96 MISG        N/A  FOG
LIBERAL        CLOUDY    34  28  80 MISG      29.94R
$$

KSZ066>073-081>083-090>101-161800-
SOUTHEAST KANSAS

CITY           SKY/WX    TMP DP  RH WIND       PRES   REMARKS
CHANUTE        CLOUDY    48  44  86 SW15G23   29.90R
HUTCHINSON     CLOUDY    35  34  96 NW6       29.86R FOG
MEDICINE LODGE   N/A     35  33  92 NW5       29.88R
NEWTON         LGT RAIN  38  37  97 SW15      29.85R FOG     WCI  29
PARSONS        CLOUDY    49  45  86 MISG      29.92R
WICHITA INTL   LGT RAIN  37  37 100 SW10      29.87R FOG     WCI  30
WICHITA JABRA  LGT RAIN  38  38 100 SW13      29.86R WCI  30
WICHITA MCCONL LGT RAIN  37  37 100 SW12      29.86R WCI  30
WINFIELD       CLOUDY    40  38  93 SW13      29.91R WCI  32
$$

KSZ007>012-019>026-033>040-048>060-102>105-161800-
NORTHEAST KANSAS

CITY           SKY/WX    TMP DP  RH WIND       PRES   REMARKS
CONCORDIA      MIX PCPN  32  32 100 NE8       29.88R FOG
EMPORIA        CLOUDY    45  42  89 S21G26    29.86R
LAWRENCE       CLOUDY    41  41 100 E8        29.88F FOG
MANHATTAN      FOG       36  36 100 E8        29.86S VSB 1/2
OLATHE IND     LGT RAIN  47  47 100 CALM      29.87F VSB 1
OLATHE EXE     CLOUDY    47  47 100 SE7       29.87F FOG
SALINA         FOG       34  34 100 N9        29.86S VSB 1
TOPEKA BILLARD CLOUDY    40  37  89 E6        29.88R
TOPEKA FORBES  CLOUDY    43  41  93 E6        29.86S
$$




USA.gov is the U.S. government's official web portal to all federal, state and local government web resources and services.